SB KEPS @ AMSAT $ORB14249.O Orbital Elements 14249.OSCAR
HR AMSAT ORBITAL ELEMENTS FOR OSCAR SATELLITES FROM WA5QGD FORT WORTH,TX September 6, 2014 BID: ORB14249.O TO ALL RADIO AMATEURS BT
Satellite: AO-07 Catalog number: 07530 Epoch time: 14248.18009442 Element set: 53 Inclination: 101.4812 deg RA of node: 227.4022 deg Eccentricity: 0.0012244 Arg of perigee: 137.0918 deg Mean anomaly: 288.0846 deg Mean motion: 12.53607045 rev/day Decay rate: -4.6e-07 rev/day^2 Epoch rev: 82154 Checksum: 266
Satellite: FO-29 Catalog number: 24278 Epoch time: 14249.50932169 Element set: 457 Inclination: 098.5145 deg RA of node: 252.1456 deg Eccentricity: 0.0351529 Arg of perigee: 086.7012 deg Mean anomaly: 062.9214 deg Mean motion: 13.53029028 rev/day Decay rate: -3.4e-07 rev/day^2 Epoch rev: 89166 Checksum: 317
Satellite: SO-33 Catalog number: 25509 Epoch time: 14249.77649247 Element set: 829 Inclination: 031.4325 deg RA of node: 058.0746 deg Eccentricity: 0.0349174 Arg of perigee: 109.2568 deg Mean anomaly: 007.6328 deg Mean motion: 14.29593290 rev/day Decay rate: 6.18e-06 rev/day^2 Epoch rev: 82883 Checksum: 343
Satellite: RS-22 Catalog number: 27939 Epoch time: 14249.56454368 Element set: 822 Inclination: 097.8156 deg RA of node: 059.6997 deg Eccentricity: 0.0012441 Arg of perigee: 205.9952 deg Mean anomaly: 154.0634 deg Mean motion: 14.65305542 rev/day Decay rate: 8.39e-06 rev/day^2 Epoch rev: 58464 Checksum: 347
Satellite: HO-68 Catalog number: 36122 Epoch time: 14249.74090873 Element set: 912 Inclination: 100.2404 deg RA of node: 299.1021 deg Eccentricity: 0.0007674 Arg of perigee: 052.3794 deg Mean anomaly: 307.8003 deg Mean motion: 13.16317742 rev/day Decay rate: -4.3e-07 rev/day^2 Epoch rev: 22716 Checksum: 280
Satellite: AO-73 Catalog number: 39444 Epoch time: 14249.23752092 Element set: 238 Inclination: 097.7651 deg RA of node: 317.1146 deg Eccentricity: 0.0061424 Arg of perigee: 341.2745 deg Mean anomaly: 018.6184 deg Mean motion: 14.78547989 rev/day Decay rate: 1.471e-05 rev/day^2 Epoch rev: 4144 Checksum: 323
Satellite: EO-79 Catalog number: 40025 Epoch time: 14249.66587790 Element set: 217 Inclination: 097.9754 deg RA of node: 144.4456 deg Eccentricity: 0.0014668 Arg of perigee: 036.2602 deg Mean anomaly: 323.9624 deg Mean motion: 14.85394337 rev/day Decay rate: 1.598e-05 rev/day^2 Epoch rev: 1168 Checksum: 342
/EX SB KEPS @ AMSAT $ORB14249.D Orbital Elements 14249.MICROS
HR AMSAT ORBITAL ELEMENTS FOR THE MICROSATS FROM WA5QGD FORT WORTH,TX September 6, 2014 BID: ORB14249.D TO ALL RADIO AMATEURS BT
Satellite: UO-11 Catalog number: 14781 Epoch time: 14249.74696123 Element set: 590 Inclination: 097.8438 deg RA of node: 308.2529 deg Eccentricity: 0.0007260 Arg of perigee: 273.0502 deg Mean anomaly: 086.9880 deg Mean motion: 14.81712863 rev/day Decay rate: 5.93e-06 rev/day^2 Epoch rev: 64004 Checksum: 318
Satellite: AO-16 Catalog number: 20439 Epoch time: 14249.42658910 Element set: 105 Inclination: 098.5109 deg RA of node: 185.2477 deg Eccentricity: 0.0009633 Arg of perigee: 279.4686 deg Mean anomaly: 218.5246 deg Mean motion: 14.32382457 rev/day Decay rate: 1.18e-06 rev/day^2 Epoch rev: 28611 Checksum: 320
Satellite: LO-19 Catalog number: 20442 Epoch time: 14249.37435918 Element set: 41 Inclination: 098.4819 deg RA of node: 185.6066 deg Eccentricity: 0.0010612 Arg of perigee: 267.1052 deg Mean anomaly: 092.8918 deg Mean motion: 14.32582653 rev/day Decay rate: 1.06e-06 rev/day^2 Epoch rev: 28630 Checksum: 303
Satellite: AO-27 Catalog number: 22825 Epoch time: 14249.45637057 Element set: 752 Inclination: 098.6690 deg RA of node: 195.1284 deg Eccentricity: 0.0009388 Arg of perigee: 064.8331 deg Mean anomaly: 072.7915 deg Mean motion: 14.29741406 rev/day Decay rate: 8.5e-07 rev/day^2 Epoch rev: 9239 Checksum: 336
Satellite: IO-26 Catalog number: 22826 Epoch time: 14249.82767416 Element set: 510 Inclination: 098.6631 deg RA of node: 195.7046 deg Eccentricity: 0.0009783 Arg of perigee: 056.5115 deg Mean anomaly: 303.7000 deg Mean motion: 14.30044180 rev/day Decay rate: 1.00e-06 rev/day^2 Epoch rev: 9258 Checksum: 283
Satellite: GO-32 Catalog number: 25397 Epoch time: 14249.50375711 Element set: 432 Inclination: 098.4778 deg RA of node: 204.4924 deg Eccentricity: 0.0002422 Arg of perigee: 087.2580 deg Mean anomaly: 050.7781 deg Mean motion: 14.23458386 rev/day Decay rate: 3.3e-07 rev/day^2 Epoch rev: 83943 Checksum: 313
Satellite: NO-44 Catalog number: 26931 Epoch time: 14249.79836296 Element set: 687 Inclination: 067.0523 deg RA of node: 188.0019 deg Eccentricity: 0.0007355 Arg of perigee: 278.1374 deg Mean anomaly: 081.8893 deg Mean motion: 14.30144546 rev/day Decay rate: 9.3e-07 rev/day^2 Epoch rev: 67527 Checksum: 341
Satellite: SO-50 Catalog number: 27607 Epoch time: 14249.50938234 Element set: 492 Inclination: 064.5579 deg RA of node: 344.4225 deg Eccentricity: 0.0057696 Arg of perigee: 348.4925 deg Mean anomaly: 011.4853 deg Mean motion: 14.73886772 rev/day Decay rate: 4.63e-06 rev/day^2 Epoch rev: 62946 Checksum: 349
Satellite: CO-55 Catalog number: 27844 Epoch time: 14249.51617368 Element set: 7 Inclination: 098.6993 deg RA of node: 257.1206 deg Eccentricity: 0.0010331 Arg of perigee: 046.9404 deg Mean anomaly: 104.4903 deg Mean motion: 14.21549602 rev/day Decay rate: 1.87e-06 rev/day^2 Epoch rev: 58013 Checksum: 299
Satellite: CO-57 Catalog number: 27848 Epoch time: 14249.53310694 Element set: 948 Inclination: 098.7088 deg RA of node: 256.8926 deg Eccentricity: 0.0010328 Arg of perigee: 053.3682 deg Mean anomaly: 067.6139 deg Mean motion: 14.21231020 rev/day Decay rate: 1.44e-06 rev/day^2 Epoch rev: 58005 Checksum: 317
Satellite: AO-51 Catalog number: 28375 Epoch time: 14249.42455250 Element set: 924 Inclination: 098.2572 deg RA of node: 193.5941 deg Eccentricity: 0.0084398 Arg of perigee: 106.8064 deg Mean anomaly: 254.2405 deg Mean motion: 14.41419126 rev/day Decay rate: 1.75e-06 rev/day^2 Epoch rev: 53561 Checksum: 313
Satellite: CP3 Catalog number: 31129 Epoch time: 14249.66731439 Element set: 836 Inclination: 097.9429 deg RA of node: 223.5619 deg Eccentricity: 0.0099752 Arg of perigee: 116.9302 deg Mean anomaly: 298.1537 deg Mean motion: 14.54812666 rev/day Decay rate: 7.88e-06 rev/day^2 Epoch rev: 39188 Checksum: 356
Satellite: CO-65 Catalog number: 32785 Epoch time: 14249.75254720 Element set: 45 Inclination: 097.6909 deg RA of node: 298.3430 deg Eccentricity: 0.0012225 Arg of perigee: 279.7393 deg Mean anomaly: 202.6093 deg Mean motion: 14.85500476 rev/day Decay rate: 1.052e-05 rev/day^2 Epoch rev: 34413 Checksum: 312
Satellite: PRISM Catalog number: 33493 Epoch time: 14249.82568836 Element set: 261 Inclination: 098.2547 deg RA of node: 068.9948 deg Eccentricity: 0.0017477 Arg of perigee: 173.4429 deg Mean anomaly: 186.6984 deg Mean motion: 14.89882171 rev/day Decay rate: 3.597e-05 rev/day^2 Epoch rev: 30433 Checksum: 368
Satellite: SOHLA-1 Catalog number: 33496 Epoch time: 14249.41033255 Element set: 445 Inclination: 098.1799 deg RA of node: 010.5843 deg Eccentricity: 0.0005788 Arg of perigee: 356.3787 deg Mean anomaly: 044.4698 deg Mean motion: 14.70876475 rev/day Decay rate: 3.64e-06 rev/day^2 Epoch rev: 30145 Checksum: 333
Satellite: TISAT-1 Catalog number: 36799 Epoch time: 14249.83919738 Element set: 522 Inclination: 098.0173 deg RA of node: 342.4649 deg Eccentricity: 0.0014832 Arg of perigee: 059.0209 deg Mean anomaly: 301.2457 deg Mean motion: 14.85986766 rev/day Decay rate: 2.372e-05 rev/day^2 Epoch rev: 22484 Checksum: 340
Satellite: STUDSAT Catalog number: 36801 Epoch time: 14249.47348329 Element set: 881 Inclination: 098.0406 deg RA of node: 351.8062 deg Eccentricity: 0.0009028 Arg of perigee: 032.8993 deg Mean anomaly: 097.5222 deg Mean motion: 14.98070895 rev/day Decay rate: 1.2321e-04 rev/day^2 Epoch rev: 22529 Checksum: 314
Satellite: ALMASAT-1 Catalog number: 38078 Epoch time: 14249.08873210 Element set: 132 Inclination: 069.4696 deg RA of node: 223.5534 deg Eccentricity: 0.0581806 Arg of perigee: 284.0881 deg Mean anomaly: 069.6282 deg Mean motion: 14.53798177 rev/day Decay rate: 2.7301e-04 rev/day^2 Epoch rev: 13337 Checksum: 328
Satellite: XATCOBEO Catalog number: 38082 Epoch time: 14243.34478676 Element set: 563 Inclination: 069.3815 deg RA of node: 097.0364 deg Eccentricity: 0.0033293 Arg of perigee: 225.1799 deg Mean anomaly: 135.4582 deg Mean motion: 16.41261006 rev/day Decay rate: 1.3583328e-01 rev/day^2 Epoch rev: 13623 Checksum: 317
Satellite: CUBEBUG-1 Catalog number: 39153 Epoch time: 14249.74388021 Element set: 447 Inclination: 098.0388 deg RA of node: 329.8723 deg Eccentricity: 0.0018990 Arg of perigee: 087.5359 deg Mean anomaly: 272.8029 deg Mean motion: 14.77890676 rev/day Decay rate: 1.270e-05 rev/day^2 Epoch rev: 7360 Checksum: 344
Satellite: ESTCUBE-1 Catalog number: 39161 Epoch time: 14249.83244555 Element set: 444 Inclination: 098.0935 deg RA of node: 330.1187 deg Eccentricity: 0.0010987 Arg of perigee: 130.6759 deg Mean anomaly: 229.5372 deg Mean motion: 14.70135628 rev/day Decay rate: 9.49e-06 rev/day^2 Epoch rev: 7159 Checksum: 323
Satellite: DUCHIFAT-1 Catalog number: 40021 Epoch time: 14249.65916481 Element set: 224 Inclination: 097.9744 deg RA of node: 144.4704 deg Eccentricity: 0.0015847 Arg of perigee: 037.3457 deg Mean anomaly: 322.8872 deg Mean motion: 14.85558428 rev/day Decay rate: 2.172e-05 rev/day^2 Epoch rev: 1167 Checksum: 312
Satellite: NANOSATCBR1 Catalog number: 40024 Epoch time: 14249.66445780 Element set: 214 Inclination: 097.9747 deg RA of node: 144.4471 deg Eccentricity: 0.0014645 Arg of perigee: 036.6431 deg Mean anomaly: 323.5801 deg Mean motion: 14.85442626 rev/day Decay rate: 1.960e-05 rev/day^2 Epoch rev: 1167 Checksum: 292
Satellite: DTUSAT-2 Catalog number: 40030 Epoch time: 14249.68536508 Element set: 211 Inclination: 097.9709 deg RA of node: 144.4084 deg Eccentricity: 0.0013718 Arg of perigee: 031.7364 deg Mean anomaly: 328.4698 deg Mean motion: 14.85025341 rev/day Decay rate: 1.637e-05 rev/day^2 Epoch rev: 1168 Checksum: 299
